Location: Lone Pine Community Mobile Home Park
(42.7367°N, 73.8567°W)
Time: 05:04:39
(UTC+00:00)

NOSS 3-4 (C) - Pass Details

Date: 29 October 2020
Orbit: 886 x 1326 km, 63.4° (Epoch: 06 November)

Event Time Altitude Azimuth Distance (km) Brightness Sun altitude
Rises 23:16:07 0° 326° (NW) 3,785 7.0 -16.1°
Reaches altitude 10° 23:18:54 10° 335° (NNW) 2,895 6.2 -16.6°
Maximum altitude 23:25:13 36° 41° (NE) 1,719 4.4 -17.8°
Enters shadow 23:28:07 27° 83° (E) 2,080 4.6 -18.3°
